Regional Weather Roundup
Issued by NWS Charleston, SC

Current Version | Previous Version | Text Only | Print | Product List | Glossary On
Versions: 1 2 3 4 5 6 7 8 9 10 11 12 13 14 15 16 17 18 19 20 21 22 23 24 25 26 27 28 29 30 31 32 33 34 35 36 37 38 39 40 41 42 43 44 45 46 47 48 49 50
000 ASUS42 KCHS 271726 RWRCHS REGIONAL WEATHER ROUNDUP NATIONAL WEATHER SERVICE CHARLESTON SC 100 PM EDT FRI MAR 27 2015 NOTE: "FAIR" INDICATES FEW OR NO CLOUDS BELOW 12,000 FEET WITH NO SIGNIFICANT WEATHER AND/OR OBSTRUCTIONS TO VISIBILITY. NOT ALL STATIONS ARE QUALITY CONTROLLED BY THE NATIONAL WEATHER SERVICE. USE DATA WITH CAUTION...ESPECIALLY DEWPOINT OBSERVATIONS. SCZ027-030-031-034>040-042>050-271800- ...SOUTHEAST SOUTH CAROLINA... CITY SKY/WX TMP DP RH WIND PRES REMARKS N CHARLESTON CLOUDY 73 61 64 SW12 29.68F WATERFRONT PRK N/A 68 N/A N/A S12 N/A MOUNT PLEASANT FAIR 72 61 68 S9G21 29.68F PINOPOLIS N/A 72 63 73 SW9 29.61S MONCKS CORNER CLOUDY 73 61 64 SW12 29.66F SUMMERVILLE PTSUNNY 72 61 68 S13G18 29.68F BEAUFORT MCAS CLOUDY 72 61 68 SW15G21 29.70F BEAUFORT ARPT CLOUDY 70 63 78 CALM 29.70F HILTON HEAD IS PTSUNNY 72 63 73 SW9G18 29.73F WALTERBORO DRIZZLE 68 61 77 SW9 29.68F ALLENDALE CLOUDY 66 64 94 VRB5 29.67F ...SOUTHERN MIDLANDS AND PEE DEE... CITY SKY/WX TMP DP RH WIND PRES REMARKS GEORGETOWN NOT AVBL KINGSTREE NOT AVBL ORANGEBURG CLOUDY 71 59 65 SW16 29.65F BARNWELL PTSUNNY 72 57 60 W10G20 29.68S AIKEN CLOUDY 59 52 77 NW9 29.74R MANNING RAIN 66 57 72 SW13G20 29.66S COLUMBIA LGT RAIN 56 51 84 N7 29.71S SUMTER LGT RAIN 55 52 91 N12 29.68F FLORENCE TSTM 54 51 90 N12 29.70F MYRTLE BEACH PTSUNNY 72 61 68 S12 29.68S N MYRTLE BEACH CLOUDY 65 59 81 S15 29.64F $$ GAZ063-065-086>088-099>101-113>116-118-119-134>141-150-271800- ...SOUTHEAST GEORGIA... CITY SKY/WX TMP DP RH WIND PRES REMARKS SAVANNAH ARPT CLOUDY 73 60 63 SW15G22 29.72F HUNTER AAF PTSUNNY 72 63 74 SW13 29.70F FORT STEWART CLOUDY 72 61 68 SW12G18 29.70F STATESBORO CLOUDY 66 66 100 W6 29.71S SYLVANIA CLOUDY 65 64 96 W5 29.71S CLAXTON LGT RAIN 64 64 100 W8 29.72S ...CSRA...CENTRAL AND FAR SOUTHEAST GEORGIA... CITY SKY/WX TMP DP RH WIND PRES REMARKS THOMSON PTSUNNY 63 52 67 W13 29.79R AUGUSTA-BUSH CLOUDY 65 54 67 W15 29.72R AUGUSTA-DANIEL PTSUNNY 63 51 65 W9 29.73S SWAINSBORO PTSUNNY 64 45 48 W16G26 29.76R VIDALIA CLOUDY 64 59 82 W12 29.76R EASTMAN CLOUDY 60 52 74 NW8G16 29.84R HAZLEHURST CLOUDY 63 59 88 W10G18 29.77R ALMA CLOUDY 70 61 73 W15 29.75F WAYCROSS CLOUDY 74 66 77 W10 29.75F JESUP CLOUDY 73 64 73 W12G17 29.74F BAXLEY HVY RAIN 68 63 83 NW15G24 29.74S BRUNSWICK CLOUDY 73 61 64 SW18 29.76F SAINT SIMONS CLOUDY 72 63 73 SW13 29.75F $$ SCZ027-028-034-036>038-045-046-048>050-GAZ119-141-271800- ...LAKE AND SUPPLEMENTAL COASTAL OBSERVATIONS... STATION/POSITION TIME TEMP WIND PRES WAVE SWELL AIR SEA DIR/SP/G HT/PER HT/PER/DIR (UTC) (F) (DEG/KT/KT) (MB) (FT/S) (FT/S/D) UPR LAKE MARION NOT AVBL WINYAH BAY 1600 71 220/ 12 1004.0F LAKE MURRAY 1700 54 340/ 4/ 10 1006.4S ACE BASIN NERRS NOT AVBL FORT PULASKI 1612 70 61 220/ 7/ 12 1007.4F SAPELO ISLAND 1700 70 230/ 14 1007.0F $$ ANZ835-935-AMZ111-154-330-350-352-354-370-450-454-472-271800- ...C-MAN AND BUOY OBSERVATIONS... STATION/POSITION TIME TEMP WIND PRES WAVE SWELL AIR SEA DIR/SP/G HT/PER HT/PER/DIR (UTC) (F) (DEG/KT/KT) (MB) (FT/S) (FT/S/D) BUOY 41004 1650 67 70 220/ 21/ 25 1005.5F 7/ 6 2/14 BUOY 41008 1650 63 60 190/ 14/ 16 1007.5F 3/ 8 2/100/ 8 FOLLY BEACH CMAN 1700 62 210/ 16/ 17 1005.9F CAPERS NEARSHORE 1600 63 230/ 16/ 19 N/A FRIPP NEARSHORE 1600 63 230/ 14/ 17 1006.8F STATION/POSITION TIME TEMP WIND PRES WAVE SWELL AIR SEA DIR/SP/G HT/PER HT/PER/DIR (UTC) (F) (DEG/KT/KT) (MB) (FT/S) (FT/S/D) 5E ST. MARYS GA 1621 63 N/A 3/ 8 FRYING PAN BUOY 1650 67 66 230/ 21/ 25 1005.5R 6/ 8 3/130/ 8 BUOY 41025 NOT AVBL CAPE LOOKOUT NC 1700 54 40/ 20/ 23 1004.6R BUOY 41002 1650 72 69 210/ 25/ 31 1007.7F 11/ 8 BUOY 41010 1620 78 76 220/ 19/ 23 1011.1F ST AUGUSTINE FL 1700 73 62 240/ 6/ 9 1009.7F $$

USA.gov is the U.S. government's official web portal to all federal, state and local government web resources and services.